Retour au catalogue

STARLINK-34002

ActifCommunicationsVLEO
NORAD 63856·PAYLOAD·🇺🇸 United States

Lancé May 7, 2025 depuis Cape Canaveral Space Force Station

Loading…

Prochains Passages (prochaines 24 heures)

TLE

FraisSource: CelesTrak SupGP

Époque: Sep 15, 2026, 02:46 UTC

1 63856C 25093W   26258.11576389  .00000864  00000+0  31290-4 0  2584
2 63856  43.0030  88.1652 0001739 270.7352  20.6882 15.27583920    15

Suivez STARLINK-34002 en temps réel avec AllMySat

Download on the App Store